[[{"header":{"parameterUnit":"m.s-1","parameterCategory":2,"la1":30.2991,"la2":30.254,"lo1":-89.0895,"lo2":-89.0444,"dy":0.0017,"dx":0.0017,"nx":28,"ny":28,"refTime":"2025-11-13T03:00:00:Z","depth":"0","parameterNumber":2,"parameterNumberName":"U-component_of_CURRENTS"},"data":[0,0,0,0,0,0,0,0,0,0,0,0,0,0,0,0,0,0,0,0,0,0,0,0,0,0,0,0,0,0,0,0,0,0,0,0,0,0,0,0,0,0,0,0,0,0,0,0,0,0,0,0,0,0,0,0,0,0,-0.0474,-0.0475,0,-0.0502,-0.0502,-0.0502,-0.0446,-0.0444,-0.0443,-0.0441,-0.0382,-0.0382,-0.0382,0,0,0,0,0,0,0,0,0,0,0,0,0,-0.0271,-0.0275,-0.0474,-0.0475,-0.0475,-0.0501,-0.0502,-0.0502,-0.0447,-0.0444,-0.0442,-0.044,-0.0382,-0.0382,-0.0382,0,0,0,0,0,0,0,0,0,0,0,0,0,-0.0336,-0.0277,-0.0474,-0.045,-0.0448,-0.0501,-0.0502,-0.0502,-0.0447,-0.0444,-0.0441,-0.0439,-0.0382,-0.0382,-0.0382,-0.0441,0,0,-0.0383,-0.0383,0,0,0,0,0,0,0,0,-0.0332,-0.0343,-0.0453,-0.0452,-0.0449,-0.0467,-0.0408,-0.0477,-0.0448,-0.0448,-0.0441,-0.0437,-0.0404,-0.0402,-0.0416,-0.0438,-0.0436,-0.0383,-0.0383,-0.0384,-0.0384,0,0,0,0,0,0,0,-0.0328,-0.0341,-0.0486,-0.0454,-0.0451,-0.0402,-0.0409,-0.0421,-0.0441,-0.0448,-0.0444,-0.0447,-0.0402,-0.0416,-0.0414,-0.0435,-0.0383,-0.0384,-0.0384,-0.0384,-0.045,-0.0451,0,0,0,0,0,0,-0.0333,-0.0339,-0.0485,-0.0486,-0.0382,-0.0408,-0.0416,-0.0465,-0.0442,-0.0437,-0.0449,-0.0444,-0.0417,-0.0414,-0.0412,-0.0464,-0.0384,-0.0384,-0.0384,-0.0448,-0.045,-0.0452,0,0,0,0,0,0,-0.033,-0.0348,-0.0484,-0.0408,-0.0422,-0.0416,-0.047,-0.0467,-0.0466,-0.0444,-0.0436,-0.0449,-0.0415,-0.0411,-0.0432,-0.0461,-0.0384,-0.0384,-0.0446,-0.0449,-0.0451,-0.0578,0,0,0,0,0,0,-0.0324,-0.0348,-0.0372,-0.0411,-0.0427,-0.0529,-0.0472,-0.0469,-0.0473,-0.0466,-0.0442,-0.0434,-0.0412,-0.0432,-0.0432,-0.046,-0.0385,-0.0444,-0.0447,-0.045,-0.0572,-0.0585,-0.0595,0,0,0,0,0,-0.0318,-0.0345,-0.0374,-0.039,-0.0467,-0.0531,-0.0536,-0.0518,-0.0475,-0.0501,-0.048,-0.0434,-0.0449,-0.0435,-0.0435,-0.0463,-0.0443,-0.0446,-0.045,-0.0567,-0.0582,-0.0595,0,0,0,0,0,0,-0.0256,-0.0345,-0.0375,-0.0428,-0.0491,-0.0522,-0.0517,-0.0524,-0.053,-0.0504,-0.0473,-0.0467,-0.0497,-0.0465,-0.0449,-0.0488,-0.0432,-0.0435,-0.0521,-0.0535,-0.0546,-0.0499,-0.0385,0,0,0,0,0,-0.0267,-0.0315,-0.0402,-0.0444,-0.0471,-0.0502,-0.0515,-0.0527,-0.054,-0.0538,-0.0531,-0.051,-0.0518,-0.0512,-0.0517,-0.0548,-0.0531,-0.0558,-0.057,-0.058,-0.0541,-0.0623,-0.0639,-0.0463,-0.0463,-0.0463,0,0,-0.0239,-0.0303,-0.0321,-0.0434,-0.0462,-0.0516,-0.0502,-0.0536,-0.0556,-0.0532,-0.0542,-0.0563,-0.0538,-0.0576,-0.0583,-0.0547,-0.0619,-0.0585,-0.0594,-0.0547,-0.0629,-0.0646,-0.0661,-0.0466,-0.0465,-0.0465,0,0,-0.0224,-0.0287,-0.0328,-0.0388,-0.0465,-0.0506,-0.0522,-0.0584,-0.0578,-0.0615,-0.0608,-0.0657,-0.0636,-0.0667,-0.0661,-0.074,-0.069,-0.0725,-0.0738,-0.0822,-0.0837,-0.085,-0.0843,-0.0855,-0.0719,-0.072,-0.072,0,-0.0218,-0.0281,-0.0344,-0.0406,-0.0446,-0.0503,-0.0559,-0.0573,-0.0633,-0.0655,-0.0612,-0.0667,-0.0675,-0.0734,-0.0754,-0.0768,-0.0765,-0.0694,-0.084,-0.0852,-0.0863,-0.0853,-0.0865,-0.0726,-0.0726,-0.0725,-0.0724,0,-0.0246,-0.0289,-0.0308,-0.0422,-0.0479,-0.0532,-0.0593,-0.0641,-0.064,-0.0671,-0.0724,-0.075,-0.0782,-0.0806,-0.0786,-0.0882,-0.0836,-0.0863,-0.0809,-0.0889,-0.0873,-0.0882,-0.0736,-0.0733,-0.0731,-0.073,0,0,-0.0292,-0.0331,-0.0345,-0.0358,-0.0497,-0.0534,-0.0602,-0.0696,-0.0715,-0.0756,-0.0791,-0.0836,-0.0864,-0.0859,-0.0887,-0.0937,-0.1036,-0.0915,-0.0916,-0.0912,-0.115,-0.0953,-0.0943,-0.1098,-0.1101,-0.1103,-0.1103,0,-0.0323,-0.0379,-0.0424,-0.0466,-0.0495,-0.0584,-0.0633,-0.0714,-0.0761,-0.0812,-0.0849,-0.0883,-0.0874,-0.0901,-0.0963,-0.1013,-0.1065,-0.1027,-0.1063,-0.1061,-0.0885,-0.095,-0.0771,-0.0742,-0.1112,-0.1114,-0.1115,0,-0.0362,-0.0393,-0.0436,-0.0457,-0.0484,-0.0523,-0.0635,-0.0683,-0.0791,-0.0825,-0.09,-0.0928,-0.1003,-0.0986,-0.1085,-0.1055,-0.11,-0.1126,-0.113,-0.0893,-0.0882,-0.0722,-0.0744,-0.0783,-0.1128,-0.1127,-0.1126,0,-0.033,-0.0388,-0.0406,-0.0429,-0.0497,-0.0522,-0.0564,-0.0686,-0.0718,-0.0837,-0.0868,-0.0975,-0.0975,-0.1079,-0.1095,-0.1117,-0.1166,-0.1232,-0.1093,-0.1078,-0.0895,-0.0858,-0.0954,-0.1328,-0.1328,-0.1328,-0.1328,0,-0.0335,-0.0334,-0.0363,-0.0363,-0.0383,-0.0447,-0.0491,-0.0565,-0.0665,-0.0701,-0.0838,-0.0853,-0.0995,-0.1032,-0.1105,-0.1062,-0.1187,-0.1068,-0.1073,-0.0928,-0.0896,-0.0891,-0.096,-0.1328,-0.1328,-0.1328,-0.1328,0,-0.0273,-0.0294,-0.0299,-0.0345,-0.0348,-0.0353,-0.0405,-0.0438,-0.0537,-0.0593,-0.0623,-0.0745,-0.0787,-0.0887,-0.1015,-0.1005,-0.1021,-0.1026,-0.0779,-0.0752,-0.0636,-0.0716,-0.0774,-0.0754,-0.0886,-0.0881,-0.0877,0,-0.0243,-0.0241,-0.027,-0.0258,-0.026,-0.0272,-0.029,-0.0374,-0.0414,-0.05,-0.0507,-0.0562,-0.0594,-0.0641,-0.0651,-0.0709,-0.0854,-0.0579,-0.0604,-0.057,-0.067,-0.0769,-0.0759,-0.0425,-0.0418,-0.0412,-0.0407,0,-0.0202,-0.0215,-0.0214,-0.0199,-0.0181,-0.0186,-0.0192,-0.02,-0.0296,-0.0321,-0.0324,-0.0345,-0.0339,-0.0264,-0.0288,-0.0343,-0.0533,-0.045,-0.0537,-0.0382,-0.0382,-0.0382,-0.044,-0.0353,-0.0359,-0.0363,-0.0366,-0.0368,-0.0178,-0.0168,-0.0163,-0.0142,-0.0121,-0.0091,-0.0064,-0.0075,-0.0078,-0.0081,-0.0119,-0.0072,0.0039,0.0059,-0.0028,0.0026,-0.0146,0.0008,-0.0109,-0.0226,-0.0151,-0.0011,0.0144,0.0142,0.014,0.0138,0.0136,0,-0.016,-0.0131,-0.0105,-0.0068,-0.0036,-0.0036,-0.0007,0.0026,0.0072,0.0103,0.0131,0.0322,0.0428,0.0397,0.0511,0.0411,0.0258,0.0284,0.0125,0.0101,0.0141,0.0223,0.0551,0.0551,0.0551,0.0551,0.0551,0.0551,-0.0129,-0.0096,-0.0081,-0.0006,0.0025,0.0085,0.0118,0.0196,0.0242,0.0386,0.0501,0.0546,0.0668,0.0679,0.0602,0.0502,0.0278,0.029,0.011,0.009,0.0052,0.0015,0.0075,0.0367,0.0366,0.016,0.0158,0.0156]},{"header":{"parameterUnit":"m.s-1","parameterCategory":2,"la1":30.2991,"la2":30.254,"lo1":-89.0895,"lo2":-89.0444,"dy":0.0017,"dx":0.0017,"nx":28,"ny":28,"refTime":"2025-11-13T03:00:00:Z","depth":"0","parameterNumber":3,"parameterNumberName":"V-component_of_CURRENTS"},"data":[0,0,0,0,0,0,0,0,0,0,0,0,0,0,0,0,0,0,0,0,0,0,0,0,0,0,0,0,0,0,0,0,0,0,0,0,0,0,0,0,0,0,0,0,0,0,0,0,0,0,0,0,0,0,0,0,0,0,-0.0164,-0.0163,0,-0.0123,-0.0122,-0.0122,-0.0084,-0.0084,-0.0084,-0.0083,0.01,0.0105,0.0109,0,0,0,0,0,0,0,0,0,0,0,0,0,-0.0175,-0.0175,-0.0164,-0.0163,-0.0163,-0.0123,-0.0122,-0.0122,-0.0084,-0.0084,-0.0083,-0.0083,0.0099,0.0104,0.011,0,0,0,0,0,0,0,0,0,0,0,0,0,-0.0155,-0.0175,-0.0164,-0.014,-0.0137,-0.0123,-0.0122,-0.0121,-0.0085,-0.0084,-0.0083,-0.0083,0.0097,0.0104,0.011,0.0139,0,0,0.0131,0.0134,0,0,0,0,0,0,0,0,-0.0157,-0.0155,-0.0144,-0.0141,-0.0138,-0.0108,-0.0059,-0.0027,-0.0085,-0.0104,-0.0083,-0.0082,0.0043,0.0054,0.0059,0.0148,0.0156,0.0132,0.0136,0.0139,0.014,0,0,0,0,0,0,0,-0.0158,-0.0156,-0.0147,-0.0143,-0.014,-0.0119,-0.0116,-0.0053,-0.0032,-0.0103,-0.01,-0.0096,0.0046,0.0052,0.0064,0.0158,0.0131,0.0137,0.0142,0.0144,0.0284,0.0283,0,0,0,0,0,0,-0.0166,-0.0158,-0.0149,-0.0146,-0.0146,-0.0119,-0.0116,-0.0118,-0.0035,-0.0023,-0.0096,-0.0094,0.004,0.0056,0.0071,0.0095,0.0138,0.0145,0.0149,0.0284,0.0284,0.0283,0,0,0,0,0,0,-0.0167,-0.0166,-0.015,-0.0151,-0.0147,-0.012,-0.0123,-0.0118,-0.0101,-0.0032,-0.0017,-0.0084,0.0042,0.0061,0.0121,0.0103,0.0148,0.0154,0.0284,0.0284,0.0283,0.0153,0,0,0,0,0,0,-0.0167,-0.0167,-0.0173,-0.0152,-0.0148,-0.0153,-0.0124,-0.0118,-0.01,-0.0097,-0.0016,0.0,0.0044,0.0111,0.0128,0.0113,0.0159,0.0285,0.0284,0.0284,0.0158,0.0148,0.014,0,0,0,0,0,-0.0168,-0.0195,-0.0174,-0.0173,-0.0157,-0.0153,-0.015,-0.0127,-0.01,-0.0106,-0.0048,-0.0002,0.0119,0.0116,0.0136,0.0123,0.0285,0.0284,0.0284,0.0162,0.015,0.014,0,0,0,0,0,0,-0.0227,-0.0192,-0.017,-0.019,-0.0171,-0.0147,-0.015,-0.0124,-0.0085,-0.007,0.0,0.002,0.006,0.0118,0.0113,0.0162,0.0208,0.0211,0.0108,0.0098,0.009,0.0053,0.0165,0,0,0,0,0,-0.0236,-0.0235,-0.0203,-0.0222,-0.0205,-0.017,-0.0163,-0.0144,-0.0107,-0.009,-0.0041,0.0022,0.0071,0.0106,0.0154,0.0193,0.0252,0.0198,0.0189,0.0181,0.0166,0.0241,0.0237,0.0281,0.0281,0.0281,0,0,-0.0256,-0.0248,-0.0241,-0.0231,-0.0208,-0.02,-0.0164,-0.0156,-0.016,-0.0071,-0.0058,-0.0005,0.0074,0.0099,0.0123,0.0148,0.02,0.018,0.0172,0.0161,0.024,0.0235,0.0231,0.028,0.028,0.028,0,0,-0.0311,-0.0291,-0.0298,-0.0278,-0.0251,-0.023,-0.0224,-0.0192,-0.0186,-0.016,-0.0107,-0.0064,0.0014,0.0049,0.0085,0.0066,0.0147,0.0084,0.0015,0.0087,0.0083,0.0081,0.0148,0.0152,0.0083,0.0083,0.0083,0,-0.0338,-0.0345,-0.0305,-0.0307,-0.0291,-0.0241,-0.0239,-0.0233,-0.0197,-0.02,-0.0168,-0.0085,-0.0014,0.0012,-0.0004,0.0044,0.0096,0.0043,0.0073,0.0072,0.0072,0.0141,0.0148,0.0077,0.0077,0.0078,0.0079,0,-0.0381,-0.0382,-0.0388,-0.0362,-0.0346,-0.0341,-0.0308,-0.0307,-0.0281,-0.0278,-0.0259,-0.0181,-0.013,-0.0107,-0.0058,-0.0038,0.0003,0.0047,0.0092,0.0059,0.0135,0.0144,0.0067,0.007,0.0072,0.0073,0,0,-0.0431,-0.042,-0.0414,-0.0405,-0.0366,-0.0357,-0.0365,-0.0365,-0.0372,-0.0355,-0.0365,-0.0305,-0.0275,-0.0232,-0.017,-0.0118,-0.0068,-0.0049,-0.0042,0.0001,0.0085,0.0108,0.0122,-0.0021,-0.002,-0.0019,0.0137,0,-0.0466,-0.0492,-0.0469,-0.047,-0.046,-0.0419,-0.0429,-0.0425,-0.0416,-0.0422,-0.0381,-0.0356,-0.0319,-0.0283,-0.0238,-0.0107,-0.0049,-0.0115,0.0124,0.0131,0.0143,0.0132,0.0199,0.0343,0.0146,0.0148,0.0149,0,-0.0487,-0.0503,-0.0519,-0.0508,-0.0497,-0.0499,-0.0484,-0.0491,-0.0499,-0.0489,-0.0486,-0.0448,-0.0399,-0.0336,-0.0175,-0.0221,-0.0086,0.0014,0.0024,0.0095,0.0171,0.0348,0.0369,0.0451,0.0165,0.0164,0.0163,0,-0.0508,-0.0522,-0.0541,-0.0531,-0.052,-0.0528,-0.0524,-0.0523,-0.053,-0.0534,-0.0528,-0.0488,-0.0432,-0.0302,-0.0135,-0.0137,0.006,0.0105,0.0248,0.0252,0.0381,0.0394,0.0498,0.0238,0.0237,0.0237,0.0236,0,-0.0529,-0.0535,-0.0559,-0.0558,-0.0577,-0.0555,-0.0574,-0.0571,-0.0571,-0.0575,-0.0566,-0.0551,-0.0416,-0.0306,-0.0151,0.0057,0.0058,0.0228,0.0291,0.0337,0.0344,0.048,0.0471,0.0243,0.0242,0.024,0.0239,0,-0.0524,-0.0543,-0.0562,-0.0579,-0.0584,-0.0592,-0.0597,-0.0607,-0.0609,-0.0604,-0.0602,-0.0575,-0.045,-0.031,-0.0074,0.006,0.0321,0.0342,0.0371,0.0432,0.0621,0.0601,0.0728,0.0815,0.0525,0.0526,0.0527,0,-0.0523,-0.0535,-0.0572,-0.058,-0.0588,-0.0606,-0.061,-0.0621,-0.0626,-0.0615,-0.0607,-0.0532,-0.0501,-0.0211,0.0061,0.0324,0.0389,0.0564,0.0571,0.0627,0.0654,0.0622,0.0685,0.0706,0.0709,0.0711,0.0713,0,-0.0508,-0.0526,-0.0544,-0.0574,-0.0588,-0.0602,-0.0617,-0.0629,-0.0625,-0.062,-0.0607,-0.0601,-0.0377,-0.0117,0.0202,0.0388,0.0605,0.0615,0.0691,0.08,0.0759,0.0875,0.0593,0.0731,0.073,0.0728,0.0727,0.0726,-0.0484,-0.0506,-0.0534,-0.0558,-0.0571,-0.058,-0.0585,-0.059,-0.0589,-0.0555,-0.0584,-0.0531,-0.022,0.0198,0.0372,0.0817,0.0751,0.0969,0.0944,0.0909,0.0968,0.0698,0.0884,0.0883,0.0882,0.0881,0.0881,0,-0.0453,-0.0483,-0.0508,-0.054,-0.0544,-0.0559,-0.0564,-0.0549,-0.0529,-0.0497,-0.0485,-0.0229,0.0121,0.0447,0.104,0.1184,0.1207,0.1231,0.1226,0.1283,0.1095,0.1078,0.1291,0.1291,0.1291,0.1291,0.1291,0.1291,-0.0436,-0.0462,-0.0497,-0.0505,-0.0516,-0.0499,-0.0495,-0.0463,-0.0427,-0.031,-0.0189,-0.013,0.0372,0.0926,0.1404,0.1445,0.1511,0.1448,0.1487,0.1365,0.1339,0.1314,0.1301,0.1557,0.1558,0.1736,0.1737,0.1738]}],[{"header":{"parameterUnit":"m.s-1","parameterCategory":2,"la1":30.2991,"la2":30.254,"lo1":-89.0895,"lo2":-89.0444,"dy":0.0017,"dx":0.0017,"nx":28,"ny":28,"refTime":"2025-11-13T03:00:00:Z","depth":"2","parameterNumber":2,"parameterNumberName":"U-component_of_CURRENTS"},"data":[0,0,0,0,0,0,0,0,0,0,0,0,0,0,0,0,0,0,0,0,0,0,0,0,0,0,0,0,0,0,0,0,0,0,0,0,0,0,0,0,0,0,0,0,0,0,0,0,0,0,0,0,0,0,0,0,0,0,-0.2915,-0.2915,0,-0.2937,-0.2937,-0.2937,-0.287,-0.2868,-0.2867,-0.2865,-0.277,-0.2769,-0.2768,0,0,0,0,0,0,0,0,0,0,0,0,0,-0.2821,-0.2822,-0.2914,-0.2915,-0.2916,-0.2937,-0.2937,-0.2937,-0.287,-0.2868,-0.2866,-0.2865,-0.2771,-0.2769,-0.2768,0,0,0,0,0,0,0,0,0,0,0,0,0,-0.2848,-0.2823,-0.2914,-0.289,-0.2889,-0.2937,-0.2937,-0.2937,-0.287,-0.2868,-0.2866,-0.2864,-0.2771,-0.2769,-0.2768,-0.28,0,0,-0.2762,-0.2761,0,0,0,0,0,0,0,0,-0.2846,-0.2851,-0.2893,-0.2892,-0.2891,-0.2904,-0.287,-0.2888,-0.2871,-0.287,-0.2865,-0.2863,-0.281,-0.2805,-0.2806,-0.2796,-0.2792,-0.2762,-0.2761,-0.276,-0.276,0,0,0,0,0,0,0,-0.2845,-0.2849,-0.2917,-0.2894,-0.2893,-0.2882,-0.2882,-0.2873,-0.2845,-0.287,-0.2867,-0.2881,-0.2807,-0.2808,-0.2803,-0.2791,-0.2762,-0.276,-0.2759,-0.2759,-0.2704,-0.2704,0,0,0,0,0,0,-0.2858,-0.2848,-0.2916,-0.2918,-0.287,-0.2886,-0.2886,-0.2897,-0.2847,-0.2841,-0.2883,-0.2878,-0.2812,-0.2806,-0.28,-0.2766,-0.276,-0.2759,-0.2758,-0.2705,-0.2704,-0.2704,0,0,0,0,0,0,-0.2855,-0.2863,-0.2915,-0.2889,-0.2895,-0.289,-0.2902,-0.2898,-0.2882,-0.286,-0.2848,-0.2869,-0.281,-0.2802,-0.2772,-0.2764,-0.2758,-0.2756,-0.2705,-0.2705,-0.2704,-0.2742,0,0,0,0,0,0,-0.2853,-0.2862,-0.2861,-0.289,-0.2898,-0.2941,-0.2905,-0.2901,-0.2898,-0.2891,-0.2845,-0.2835,-0.2808,-0.2774,-0.277,-0.2761,-0.2755,-0.2706,-0.2705,-0.2704,-0.2741,-0.2743,-0.2744,0,0,0,0,0,-0.2849,-0.2868,-0.286,-0.2868,-0.29,-0.2942,-0.2944,-0.2929,-0.29,-0.2902,-0.2859,-0.2835,-0.2766,-0.2774,-0.2768,-0.2758,-0.2706,-0.2705,-0.2704,-0.2741,-0.2743,-0.2744,0,0,0,0,0,0,-0.2839,-0.2865,-0.2856,-0.2884,-0.2908,-0.2933,-0.2934,-0.2929,-0.29,-0.2878,-0.284,-0.2829,-0.2791,-0.2776,-0.2785,-0.2738,-0.2728,-0.2727,-0.2758,-0.276,-0.2761,-0.2769,-0.2753,0,0,0,0,0,-0.2837,-0.2845,-0.2879,-0.29,-0.2908,-0.2917,-0.2926,-0.2923,-0.2915,-0.29,-0.2868,-0.2826,-0.279,-0.2775,-0.2742,-0.2734,-0.2683,-0.272,-0.2721,-0.2723,-0.2724,-0.2652,-0.2647,-0.2701,-0.2701,-0.2701,0,0,-0.2847,-0.2857,-0.2866,-0.2897,-0.2903,-0.2924,-0.2913,-0.2934,-0.294,-0.2895,-0.2869,-0.2829,-0.2786,-0.2761,-0.2744,-0.2745,-0.2674,-0.2722,-0.2724,-0.2724,-0.2651,-0.2646,-0.2641,-0.27,-0.27,-0.2701,0,0,-0.2873,-0.2871,-0.2883,-0.2897,-0.2917,-0.2927,-0.2932,-0.2949,-0.2936,-0.2932,-0.2879,-0.2839,-0.2805,-0.2768,-0.2745,-0.2741,-0.2678,-0.2725,-0.2748,-0.2679,-0.2674,-0.2669,-0.2571,-0.2557,-0.2734,-0.2734,-0.2734,0,-0.2872,-0.289,-0.2898,-0.2911,-0.2915,-0.2926,-0.294,-0.2949,-0.2951,-0.2938,-0.2922,-0.2845,-0.2808,-0.2767,-0.2758,-0.2744,-0.2683,-0.2748,-0.2681,-0.2675,-0.267,-0.257,-0.2554,-0.2736,-0.2736,-0.2736,-0.2736,0,-0.2914,-0.2912,-0.2921,-0.2927,-0.2941,-0.2957,-0.2974,-0.2973,-0.2957,-0.296,-0.2917,-0.2872,-0.2824,-0.2806,-0.2781,-0.2724,-0.2683,-0.2685,-0.2679,-0.2667,-0.2562,-0.2545,-0.2739,-0.2738,-0.2737,-0.2737,0,0,-0.2912,-0.2942,-0.2932,-0.2916,-0.2939,-0.2948,-0.2966,-0.2975,-0.2956,-0.2961,-0.2927,-0.2885,-0.2859,-0.2831,-0.2791,-0.274,-0.2637,-0.27,-0.2695,-0.2606,-0.245,-0.232,-0.2288,-0.2624,-0.2622,-0.262,-0.2384,0,-0.2917,-0.2938,-0.2953,-0.2944,-0.2941,-0.2949,-0.2955,-0.2965,-0.296,-0.2933,-0.2911,-0.2865,-0.2872,-0.2829,-0.2787,-0.2666,-0.2597,-0.2699,-0.2472,-0.2465,-0.2355,-0.2267,-0.215,-0.192,-0.2367,-0.2364,-0.2362,0,-0.2912,-0.2921,-0.2929,-0.291,-0.2907,-0.2902,-0.2876,-0.2891,-0.2888,-0.2884,-0.2874,-0.2855,-0.2793,-0.2791,-0.2622,-0.2683,-0.2569,-0.2486,-0.2474,-0.2331,-0.2303,-0.2009,-0.1872,-0.2332,-0.2335,-0.2337,-0.2339,0,-0.2854,-0.2872,-0.2866,-0.2865,-0.2877,-0.2852,-0.285,-0.2855,-0.284,-0.2843,-0.2808,-0.2789,-0.2713,-0.2627,-0.2483,-0.2538,-0.226,-0.2315,-0.2092,-0.208,-0.1924,-0.1902,-0.2174,-0.2175,-0.2175,-0.2176,-0.2176,0,-0.2818,-0.2791,-0.2825,-0.2806,-0.2762,-0.2792,-0.274,-0.2751,-0.2744,-0.2691,-0.2759,-0.2674,-0.2662,-0.2525,-0.2436,-0.2179,-0.2218,-0.2057,-0.2001,-0.1929,-0.1912,-0.2243,-0.2254,-0.2167,-0.2169,-0.2171,-0.2172,0,-0.2723,-0.2766,-0.2726,-0.273,-0.2722,-0.2677,-0.2653,-0.2615,-0.2638,-0.2562,-0.2556,-0.2539,-0.2368,-0.2312,-0.2119,-0.2055,-0.187,-0.1767,-0.1669,-0.1607,-0.1756,-0.1772,-0.1513,-0.1506,-0.15,-0.1496,-0.1492,0,-0.2679,-0.2656,-0.2638,-0.2595,-0.2575,-0.2535,-0.2497,-0.2542,-0.2497,-0.2439,-0.2362,-0.224,-0.2095,-0.1796,-0.1678,-0.1484,-0.1612,-0.127,-0.1372,-0.171,-0.1683,-0.1709,-0.1732,-0.1167,-0.116,-0.1155,-0.1151,0,-0.2552,-0.2537,-0.2503,-0.244,-0.2382,-0.2347,-0.2291,-0.2263,-0.2283,-0.2201,-0.2044,-0.1934,-0.1683,-0.145,-0.1245,-0.1123,-0.1318,-0.1155,-0.1482,-0.1368,-0.1368,-0.1348,-0.1385,-0.1105,-0.1109,-0.1113,-0.1115,-0.1117,-0.2415,-0.2366,-0.232,-0.2236,-0.2196,-0.214,-0.2065,-0.2011,-0.1923,-0.1748,-0.1715,-0.146,-0.1426,-0.1027,-0.0877,-0.0772,-0.091,-0.0894,-0.0917,-0.0943,-0.096,-0.0952,-0.0612,-0.0613,-0.0615,-0.0616,-0.0617,0,-0.2244,-0.2201,-0.2118,-0.2035,-0.1946,-0.1978,-0.1899,-0.1788,-0.1621,-0.1443,-0.1242,-0.0998,-0.0778,-0.0727,-0.0514,-0.0453,-0.0494,-0.0402,-0.0525,-0.0569,-0.0609,-0.0618,-0.0173,-0.0171,-0.017,-0.0169,0,0,-0.2143,-0.2034,-0.2003,-0.1817,-0.1751,-0.1611,-0.1552,-0.1382,-0.1225,-0.0966,-0.0779,-0.066,-0.0696,-0.0465,-0.0398,-0.0268,-0.0401,-0.0192,-0.055,-0.0739,-0.0777,-0.0887,-0.0947,0,0,0,0,0]},{"header":{"parameterUnit":"m.s-1","parameterCategory":2,"la1":30.2991,"la2":30.254,"lo1":-89.0895,"lo2":-89.0444,"dy":0.0017,"dx":0.0017,"nx":28,"ny":28,"refTime":"2025-11-13T03:00:00:Z","depth":"2","parameterNumber":3,"parameterNumberName":"V-component_of_CURRENTS"},"data":[0,0,0,0,0,0,0,0,0,0,0,0,0,0,0,0,0,0,0,0,0,0,0,0,0,0,0,0,0,0,0,0,0,0,0,0,0,0,0,0,0,0,0,0,0,0,0,0,0,0,0,0,0,0,0,0,0,0,0.055,0.0552,0,0.0692,0.0693,0.0695,0.071,0.0709,0.0708,0.0707,0.0743,0.0745,0.0747,0,0,0,0,0,0,0,0,0,0,0,0,0,0.0355,0.0357,0.055,0.0552,0.0555,0.0692,0.0693,0.0695,0.071,0.0709,0.0708,0.0707,0.0743,0.0745,0.0747,0,0,0,0,0,0,0,0,0,0,0,0,0,0.0457,0.0358,0.0549,0.0583,0.0588,0.0692,0.0694,0.0695,0.071,0.0709,0.0708,0.0706,0.0742,0.0744,0.0747,0.079,0,0,0.0755,0.0756,0,0,0,0,0,0,0,0,0.0451,0.0463,0.0576,0.0581,0.0587,0.0687,0.0638,0.0724,0.0711,0.0657,0.0707,0.0706,0.072,0.0724,0.0747,0.0792,0.0794,0.0755,0.0757,0.0758,0.0759,0,0,0,0,0,0,0,0.0443,0.0457,0.06,0.0579,0.0585,0.0614,0.0625,0.0655,0.0687,0.0662,0.0665,0.0691,0.0721,0.0744,0.0747,0.0794,0.0755,0.0758,0.0759,0.076,0.0844,0.0844,0,0,0,0,0,0,0.0437,0.0451,0.0596,0.0605,0.0521,0.0618,0.0631,0.0651,0.069,0.0697,0.0692,0.0691,0.074,0.0744,0.0749,0.0749,0.0758,0.0761,0.0762,0.0843,0.0844,0.0844,0,0,0,0,0,0,0.0432,0.0448,0.059,0.0536,0.0557,0.0623,0.0646,0.0655,0.065,0.0715,0.0718,0.0674,0.0739,0.0745,0.0765,0.0752,0.0762,0.0764,0.0842,0.0843,0.0844,0.0782,0,0,0,0,0,0,0.0426,0.0445,0.0434,0.0535,0.056,0.0632,0.0648,0.0659,0.0673,0.0672,0.0702,0.0706,0.0739,0.0761,0.0768,0.0756,0.0766,0.0842,0.0843,0.0844,0.0784,0.0781,0.0779,0,0,0,0,0,0.0418,0.0407,0.0432,0.0449,0.0549,0.0633,0.0646,0.0686,0.0673,0.0673,0.0698,0.0703,0.0773,0.0764,0.0772,0.076,0.0841,0.0842,0.0844,0.0785,0.0782,0.0779,0,0,0,0,0,0,0.0324,0.0412,0.044,0.0459,0.0535,0.0637,0.0631,0.0667,0.0688,0.0668,0.0713,0.0721,0.0735,0.0762,0.0751,0.0791,0.0807,0.081,0.0759,0.0757,0.0754,0.0718,0.0769,0,0,0,0,0,0.0301,0.0305,0.0416,0.0429,0.0454,0.0535,0.0563,0.0601,0.0652,0.0657,0.0688,0.0717,0.0755,0.0763,0.08,0.0818,0.0827,0.0818,0.0815,0.0813,0.0791,0.0823,0.0821,0.0849,0.0849,0.0849,0,0,0.0276,0.0319,0.0327,0.0407,0.0454,0.0504,0.0544,0.058,0.0619,0.0658,0.0677,0.0706,0.0759,0.0787,0.0794,0.08,0.0807,0.0815,0.0812,0.0791,0.0824,0.0821,0.0818,0.085,0.085,0.085,0,0,0.0221,0.0256,0.0239,0.0298,0.037,0.0445,0.0448,0.0538,0.0561,0.0609,0.0643,0.0666,0.0719,0.0761,0.0789,0.0796,0.0795,0.0798,0.075,0.0782,0.0779,0.0776,0.0762,0.0759,0.0794,0.0794,0.0794,0,0.0179,0.0189,0.0251,0.0261,0.0305,0.0411,0.043,0.0494,0.0581,0.0598,0.06,0.0677,0.0715,0.0758,0.0755,0.0788,0.0782,0.0753,0.0775,0.0773,0.0772,0.0758,0.0755,0.0791,0.0791,0.0792,0.0792,0,0.0137,0.0141,0.0135,0.0192,0.0249,0.0282,0.04,0.0441,0.0483,0.0548,0.0581,0.064,0.0678,0.07,0.0724,0.0734,0.0723,0.0768,0.0773,0.0765,0.0751,0.0749,0.0787,0.0788,0.0789,0.079,0,0,0.0045,0.0093,0.0086,0.0095,0.0212,0.0257,0.0328,0.0424,0.045,0.0519,0.0538,0.0602,0.0609,0.064,0.0675,0.0695,0.0676,0.0702,0.0705,0.0668,0.0693,0.0706,0.0706,0.0713,0.0713,0.0713,0.0678,0,-0.0014,-0.0025,0.0032,0.0051,0.0065,0.0187,0.0248,0.0346,0.0427,0.0477,0.0541,0.0569,0.0601,0.0591,0.062,0.0668,0.067,0.0678,0.0722,0.0723,0.0722,0.0705,0.0702,0.0673,0.0677,0.0677,0.0676,0,-0.0082,-0.0078,-0.0088,-0.003,-0.0015,0.0014,0.0121,0.0188,0.0312,0.0357,0.0407,0.0476,0.051,0.0539,0.0595,0.0587,0.0615,0.0653,0.0655,0.0684,0.0734,0.069,0.067,0.0674,0.0674,0.0674,0.0674,0,-0.0186,-0.0165,-0.0183,-0.0156,-0.0061,-0.0066,-0.0017,0.0113,0.0175,0.0253,0.0295,0.0369,0.0387,0.0449,0.0536,0.055,0.0594,0.0644,0.0681,0.0681,0.0696,0.0698,0.0671,0.0671,0.0671,0.0671,0.0671,0,-0.0262,-0.0284,-0.0258,-0.0263,-0.0285,-0.0197,-0.0186,-0.0115,-0.0006,0.0059,0.0182,0.0239,0.0361,0.0438,0.0503,0.0574,0.0572,0.065,0.0677,0.0674,0.0675,0.0701,0.0705,0.067,0.067,0.067,0.067,0,-0.0374,-0.0347,-0.0376,-0.0342,-0.0343,-0.0375,-0.0301,-0.0258,-0.017,-0.0083,-0.0066,0.0117,0.0212,0.0349,0.0451,0.0524,0.0601,0.0625,0.0589,0.0613,0.0665,0.0666,0.0654,0.0655,0.0655,0.0655,0.0655,0,-0.0425,-0.0455,-0.0465,-0.0484,-0.0493,-0.0508,-0.048,-0.0376,-0.03,-0.0145,-0.0099,0.0022,0.0141,0.0297,0.047,0.0592,0.0589,0.0616,0.0667,0.0637,0.0665,0.0666,0.0667,0.0647,0.0648,0.0648,0.0648,0,-0.0516,-0.0535,-0.055,-0.0594,-0.0612,-0.0585,-0.0555,-0.051,-0.0356,-0.0286,-0.0172,-0.0086,0.0134,0.0315,0.0493,0.0559,0.0604,0.0621,0.0609,0.0662,0.0632,0.0659,0.066,0.0648,0.0648,0.0648,0.0648,0.0648,-0.0587,-0.0625,-0.0644,-0.0681,-0.0686,-0.0648,-0.0623,-0.0546,-0.0461,-0.0313,-0.0244,-0.0043,0.0133,0.0479,0.0526,0.0624,0.0662,0.0661,0.066,0.066,0.0676,0.0649,0.0668,0.0668,0.0668,0.0668,0.0668,0,-0.0633,-0.0664,-0.0707,-0.0715,-0.0704,-0.0702,-0.0623,-0.0573,-0.0496,-0.0343,-0.0256,0.004,0.0255,0.0455,0.0644,0.0685,0.0672,0.0634,0.0621,0.0622,0.0622,0.0635,0.0617,0.0616,0.0616,0.0616,0,0,-0.0654,-0.0693,-0.0702,-0.0702,-0.0712,-0.0679,-0.0638,-0.0601,-0.0478,-0.0337,-0.0109,0.0103,0.0383,0.0486,0.0515,0.0574,0.0551,0.0547,0.0589,0.0563,0.056,0.0651,0.0675,0,0,0,0,0]}],[{"header":{"parameterUnit":"m.s-1","parameterCategory":2,"la1":30.2991,"la2":30.254,"lo1":-89.0895,"lo2":-89.0444,"dy":0.0017,"dx":0.0017,"nx":28,"ny":28,"refTime":"2025-11-13T03:00:00:Z","depth":"4","parameterNumber":2,"parameterNumberName":"U-component_of_CURRENTS"},"data":[0,0,0,0,0,0,0,0,0,0,0,0,0,0,0,0,0,0,0,0,0,0,0,0,0,0,0,0,0,0,0,0,0,0,0,0,0,0,0,0,0,0,0,0,0,0,0,0,0,0,0,0,0,0,0,0,0,0,-0.0994,-0.0995,0,-0.1062,-0.1062,-0.1063,-0.1068,-0.1067,-0.1067,-0.1066,-0.1145,-0.1147,-0.115,0,0,0,0,0,0,0,0,0,0,0,0,0,-0.0891,-0.0893,-0.0994,-0.0995,-0.0996,-0.1062,-0.1062,-0.1063,-0.1068,-0.1067,-0.1067,-0.1066,-0.1144,-0.1147,-0.115,0,0,0,0,0,0,0,0,0,0,0,0,0,-0.0944,-0.0893,-0.0994,-0.1007,-0.1009,-0.1061,-0.1062,-0.1063,-0.1068,-0.1067,-0.1066,-0.1066,-0.1143,-0.1147,-0.1151,-0.1195,0,0,-0.1163,-0.1165,0,0,0,0,0,0,0,0,-0.0941,-0.0947,-0.1005,-0.1007,-0.1009,-0.1056,-0.1055,-0.1108,-0.1069,-0.1045,-0.1066,-0.1065,-0.1118,-0.1124,-0.1137,-0.1199,-0.1202,-0.1163,-0.1166,-0.1168,-0.1169,0,0,0,0,0,0,0,-0.0937,-0.0945,-0.102,-0.1006,-0.1008,-0.1017,-0.1023,-0.1065,-0.1085,-0.1047,-0.1048,-0.1057,-0.1119,-0.1133,-0.1139,-0.1203,-0.1163,-0.1167,-0.1169,-0.1171,-0.1339,-0.1341,0,0,0,0,0,0,-0.0931,-0.0941,-0.1018,-0.1022,-0.0973,-0.102,-0.1027,-0.1041,-0.1085,-0.1091,-0.1058,-0.1057,-0.1127,-0.1134,-0.1142,-0.1212,-0.1168,-0.1171,-0.1174,-0.1337,-0.1339,-0.1342,0,0,0,0,0,0,-0.0929,-0.0938,-0.1015,-0.0983,-0.0994,-0.1023,-0.1039,-0.1043,-0.1074,-0.1093,-0.1099,-0.1086,-0.1126,-0.1136,-0.1195,-0.1214,-0.1173,-0.1177,-0.1335,-0.1338,-0.1341,-0.1342,0,0,0,0,0,0,-0.0926,-0.0937,-0.0954,-0.0983,-0.0996,-0.1055,-0.104,-0.1045,-0.1081,-0.1081,-0.1119,-0.1124,-0.1126,-0.1189,-0.1199,-0.1219,-0.118,-0.1332,-0.1336,-0.134,-0.1339,-0.1345,-0.1349,0,0,0,0,0,-0.0922,-0.094,-0.0954,-0.0964,-0.1016,-0.1057,-0.1064,-0.108,-0.1083,-0.1103,-0.1131,-0.1124,-0.122,-0.1195,-0.1206,-0.1227,-0.133,-0.1335,-0.1339,-0.1337,-0.1344,-0.1349,0,0,0,0,0,0,-0.0902,-0.0943,-0.0959,-0.0989,-0.1028,-0.1058,-0.1079,-0.1097,-0.1136,-0.1144,-0.1155,-0.1163,-0.1237,-0.1236,-0.1207,-0.129,-0.1273,-0.128,-0.1268,-0.1274,-0.1279,-0.1309,-0.1183,0,0,0,0,0,-0.0909,-0.0936,-0.0977,-0.1006,-0.1025,-0.1061,-0.1084,-0.1103,-0.1137,-0.1154,-0.1182,-0.1217,-0.1264,-0.127,-0.1325,-0.1358,-0.1349,-0.138,-0.1385,-0.1389,-0.1424,-0.1421,-0.1428,-0.1357,-0.1357,-0.1357,0,0,-0.0907,-0.0938,-0.0952,-0.1005,-0.1035,-0.1069,-0.1072,-0.1118,-0.1149,-0.1159,-0.1216,-0.126,-0.129,-0.1339,-0.1367,-0.1332,-0.1397,-0.1394,-0.1397,-0.1431,-0.1426,-0.1433,-0.1438,-0.136,-0.1359,-0.1359,0,0,-0.0917,-0.095,-0.0975,-0.101,-0.1066,-0.1092,-0.1111,-0.1162,-0.1186,-0.1247,-0.1273,-0.1323,-0.1379,-0.1398,-0.1413,-0.148,-0.1453,-0.1498,-0.151,-0.1505,-0.151,-0.1515,-0.1469,-0.1469,-0.1462,-0.1462,-0.1462,0,-0.092,-0.0954,-0.099,-0.1024,-0.1054,-0.1103,-0.1138,-0.1174,-0.124,-0.1263,-0.1267,-0.1387,-0.1405,-0.1462,-0.1485,-0.149,-0.1476,-0.1473,-0.1508,-0.1513,-0.1517,-0.147,-0.147,-0.1463,-0.1463,-0.1463,-0.1463,0,-0.0944,-0.0977,-0.0996,-0.1055,-0.1094,-0.1136,-0.1187,-0.1241,-0.1278,-0.13,-0.1393,-0.1437,-0.149,-0.1506,-0.1516,-0.157,-0.1544,-0.1537,-0.1481,-0.1524,-0.1471,-0.1472,-0.1464,-0.1463,-0.1463,-0.1463,0,0,-0.0932,-0.1001,-0.1003,-0.1022,-0.1115,-0.1134,-0.1216,-0.1276,-0.1308,-0.1381,-0.1411,-0.1515,-0.154,-0.1566,-0.1589,-0.1592,-0.1589,-0.158,-0.1579,-0.1516,-0.1555,-0.1434,-0.1422,-0.1583,-0.1584,-0.1585,-0.1487,0,-0.0943,-0.099,-0.103,-0.107,-0.1103,-0.1174,-0.1248,-0.1312,-0.1349,-0.1387,-0.1446,-0.15,-0.1554,-0.1581,-0.1601,-0.1625,-0.1601,-0.1616,-0.1544,-0.1541,-0.1413,-0.1423,-0.159,-0.1487,-0.1487,-0.1487,-0.1487,0,-0.0953,-0.0982,-0.103,-0.1088,-0.1109,-0.1153,-0.1246,-0.1301,-0.1379,-0.1424,-0.1485,-0.151,-0.1578,-0.1588,-0.1641,-0.1651,-0.1615,-0.161,-0.1604,-0.1505,-0.1424,-0.1452,-0.1488,-0.1488,-0.1488,-0.1488,-0.1488,0,-0.0919,-0.0967,-0.0999,-0.1021,-0.1117,-0.1161,-0.1215,-0.1316,-0.1348,-0.1426,-0.1448,-0.1533,-0.1567,-0.1588,-0.1603,-0.1615,-0.1614,-0.1597,-0.1447,-0.1435,-0.157,-0.1567,-0.1593,-0.1594,-0.1594,-0.1594,-0.1594,0,-0.091,-0.0922,-0.0981,-0.0998,-0.1044,-0.1127,-0.1172,-0.1265,-0.1344,-0.1358,-0.1452,-0.1477,-0.1576,-0.1575,-0.1581,-0.1524,-0.1585,-0.1464,-0.1413,-0.1567,-0.1565,-0.1566,-0.1564,-0.159,-0.1591,-0.1592,-0.1593,0,-0.0859,-0.0911,-0.0932,-0.101,-0.1036,-0.1059,-0.1129,-0.1148,-0.1278,-0.1294,-0.132,-0.1427,-0.1457,-0.15,-0.151,-0.147,-0.1434,-0.1378,-0.1521,-0.1478,-0.1252,-0.1252,-0.119,-0.1185,-0.1181,-0.1178,-0.1175,0,-0.0833,-0.0855,-0.0906,-0.0904,-0.0931,-0.0967,-0.101,-0.1127,-0.113,-0.1246,-0.1236,-0.1289,-0.1342,-0.1265,-0.1344,-0.1311,-0.1299,-0.1249,-0.1291,-0.126,-0.1217,-0.1223,-0.1228,-0.1168,-0.1167,-0.1166,-0.1165,0,-0.0781,-0.0813,-0.082,-0.0823,-0.0838,-0.0838,-0.0882,-0.0889,-0.1009,-0.1098,-0.1113,-0.1119,-0.1131,-0.1168,-0.1153,-0.1137,-0.1283,-0.1206,-0.1215,-0.1254,-0.1233,-0.1195,-0.1205,-0.1151,-0.1153,-0.1154,-0.1155,0,-0.0729,-0.0714,-0.0733,-0.0719,-0.072,-0.0716,-0.0755,-0.0762,-0.0805,-0.094,-0.0925,-0.1017,-0.1096,-0.1071,-0.1062,-0.1044,-0.1026,-0.0985,-0.1005,-0.1022,-0.1022,-0.0973,-0.077,0,0,0,0,0,-0.0668,-0.0649,-0.0623,-0.0608,-0.0592,-0.0613,-0.0669,-0.0715,-0.0817,-0.0783,-0.0857,-0.0862,-0.0877,-0.0925,-0.0872,-0.0987,-0.1035,-0.0919,-0.1,-0.1072,-0.1089,-0.111,0,0,0,0,0,0,-0.0631,-0.061,-0.06,-0.0515,-0.048,-0.0478,-0.0525,-0.0605,-0.0592,-0.0697,-0.0711,-0.0772,-0.0805,-0.0885,-0.0843,-0.0853,-0.0875,-0.0964,-0.096,-0.1063,-0.1078,-0.1091,-0.1119,0,0,0,0,0]},{"header":{"parameterUnit":"m.s-1","parameterCategory":2,"la1":30.2991,"la2":30.254,"lo1":-89.0895,"lo2":-89.0444,"dy":0.0017,"dx":0.0017,"nx":28,"ny":28,"refTime":"2025-11-13T03:00:00:Z","depth":"4","parameterNumber":3,"parameterNumberName":"V-component_of_CURRENTS"},"data":[0,0,0,0,0,0,0,0,0,0,0,0,0,0,0,0,0,0,0,0,0,0,0,0,0,0,0,0,0,0,0,0,0,0,0,0,0,0,0,0,0,0,0,0,0,0,0,0,0,0,0,0,0,0,0,0,0,0,-0.0124,-0.0124,0,-0.0138,-0.0138,-0.0139,-0.0138,-0.0137,-0.0136,-0.0135,-0.0131,-0.0132,-0.0133,0,0,0,0,0,0,0,0,0,0,0,0,0,-0.0171,-0.017,-0.0124,-0.0124,-0.0123,-0.0138,-0.0138,-0.0139,-0.0138,-0.0137,-0.0136,-0.0135,-0.0131,-0.0132,-0.0133,0,0,0,0,0,0,0,0,0,0,0,0,0,-0.017,-0.017,-0.0124,-0.012,-0.0119,-0.0137,-0.0138,-0.0139,-0.0138,-0.0137,-0.0136,-0.0135,-0.0131,-0.0132,-0.0133,-0.0162,0,0,-0.0136,-0.0136,0,0,0,0,0,0,0,0,-0.017,-0.0169,-0.0121,-0.012,-0.0119,-0.0129,-0.0153,-0.0144,-0.0138,-0.0138,-0.0135,-0.0134,-0.0126,-0.0127,-0.0142,-0.0162,-0.0162,-0.0136,-0.0136,-0.0137,-0.0137,0,0,0,0,0,0,0,-0.017,-0.0169,-0.0136,-0.012,-0.0119,-0.0142,-0.014,-0.0152,-0.0143,-0.0138,-0.0136,-0.0128,-0.0126,-0.0141,-0.0141,-0.0162,-0.0136,-0.0136,-0.0137,-0.0137,-0.0214,-0.0216,0,0,0,0,0,0,-0.0153,-0.0168,-0.0135,-0.0136,-0.0135,-0.0141,-0.014,-0.0132,-0.0143,-0.0142,-0.0129,-0.0128,-0.014,-0.014,-0.0141,-0.0185,-0.0137,-0.0137,-0.0138,-0.0213,-0.0215,-0.0216,0,0,0,0,0,0,-0.0154,-0.015,-0.0135,-0.0147,-0.0146,-0.014,-0.0133,-0.0133,-0.0145,-0.0135,-0.0135,-0.0138,-0.0139,-0.014,-0.0161,-0.0184,-0.0138,-0.0139,-0.0211,-0.0213,-0.0215,-0.0267,0,0,0,0,0,0,-0.0155,-0.015,-0.0155,-0.0146,-0.0144,-0.0147,-0.0133,-0.0134,-0.0138,-0.0137,-0.0143,-0.0142,-0.0138,-0.016,-0.0162,-0.0184,-0.0139,-0.0209,-0.0212,-0.0215,-0.0263,-0.0271,-0.0277,0,0,0,0,0,-0.0157,-0.0166,-0.0155,-0.0151,-0.0146,-0.0147,-0.015,-0.0146,-0.014,-0.0152,-0.016,-0.0141,-0.0179,-0.0162,-0.0164,-0.0187,-0.0208,-0.0211,-0.0215,-0.026,-0.0269,-0.0277,0,0,0,0,0,0,-0.0191,-0.0166,-0.0154,-0.0155,-0.0148,-0.0144,-0.0157,-0.015,-0.0169,-0.0168,-0.0162,-0.0163,-0.0188,-0.0185,-0.0167,-0.0219,-0.019,-0.0194,-0.0224,-0.0232,-0.0239,-0.0195,-0.014,0,0,0,0,0,-0.0198,-0.0195,-0.0174,-0.0175,-0.0173,-0.0166,-0.017,-0.0163,-0.0168,-0.0175,-0.018,-0.019,-0.0207,-0.0216,-0.0225,-0.0258,-0.0205,-0.0275,-0.0282,-0.0287,-0.0254,-0.0213,-0.0212,-0.0227,-0.0227,-0.0227,0,0,-0.021,-0.0195,-0.0194,-0.0182,-0.018,-0.0191,-0.0168,-0.0171,-0.0185,-0.0172,-0.0206,-0.0211,-0.0219,-0.0254,-0.0265,-0.0253,-0.0258,-0.0292,-0.0296,-0.0259,-0.0216,-0.0214,-0.0213,-0.023,-0.0229,-0.0229,0,0,-0.0235,-0.022,-0.023,-0.0233,-0.0222,-0.0213,-0.0212,-0.0211,-0.0216,-0.0249,-0.024,-0.0248,-0.0293,-0.0288,-0.0296,-0.0344,-0.0291,-0.0365,-0.0368,-0.0331,-0.0328,-0.0325,-0.0258,-0.0248,-0.0374,-0.0374,-0.0374,0,-0.0249,-0.0259,-0.0235,-0.0253,-0.0262,-0.0223,-0.0246,-0.0248,-0.0256,-0.0265,-0.0266,-0.0298,-0.0303,-0.0318,-0.0337,-0.0355,-0.0316,-0.0338,-0.0336,-0.0332,-0.0327,-0.0259,-0.0248,-0.0377,-0.0377,-0.0376,-0.0376,0,-0.0287,-0.0302,-0.0311,-0.0315,-0.0321,-0.0333,-0.0321,-0.0321,-0.0322,-0.033,-0.0347,-0.0345,-0.0359,-0.0372,-0.0372,-0.0356,-0.0331,-0.0344,-0.0307,-0.0328,-0.0256,-0.0243,-0.0381,-0.038,-0.0379,-0.0378,0,0,-0.0302,-0.033,-0.0338,-0.0356,-0.0358,-0.0363,-0.0373,-0.0376,-0.0378,-0.0389,-0.0408,-0.0417,-0.0401,-0.0403,-0.0394,-0.0352,-0.0297,-0.0337,-0.0334,-0.0254,-0.0188,-0.0184,-0.0169,-0.0316,-0.0314,-0.0312,-0.0149,0,-0.0339,-0.0388,-0.0393,-0.0438,-0.0459,-0.0438,-0.0455,-0.0452,-0.0443,-0.0453,-0.0432,-0.0448,-0.0421,-0.0424,-0.0382,-0.0311,-0.0265,-0.0337,-0.0191,-0.0185,-0.0167,-0.0155,-0.0307,-0.0139,-0.0136,-0.0134,-0.0132,0,-0.0379,-0.0406,-0.0463,-0.0496,-0.0505,-0.0525,-0.052,-0.0533,-0.0521,-0.0515,-0.0498,-0.0487,-0.0426,-0.0417,-0.0266,-0.0316,-0.0251,-0.0187,-0.0181,-0.0139,-0.0158,-0.0114,-0.0108,-0.011,-0.0111,-0.0113,-0.0115,0,-0.0398,-0.0454,-0.0499,-0.0518,-0.0547,-0.0563,-0.0572,-0.0561,-0.0571,-0.0545,-0.0533,-0.0478,-0.0432,-0.0341,-0.0209,-0.0242,-0.0031,-0.0074,0.0001,0.0003,-0.0024,-0.0029,0.0029,0.0029,0.0028,0.0028,0.0027,0,-0.0431,-0.0473,-0.0515,-0.0544,-0.0592,-0.0606,-0.0635,-0.0617,-0.0616,-0.0616,-0.057,-0.0523,-0.0408,-0.0292,-0.0198,-0.003,-0.0021,0.0035,0.0049,-0.0053,-0.0063,-0.0014,-0.0021,0.0034,0.0033,0.0031,0.003,0,-0.0451,-0.048,-0.0536,-0.0586,-0.0603,-0.0642,-0.0682,-0.0691,-0.0664,-0.065,-0.0643,-0.0538,-0.0356,-0.0221,-0.0039,0.0005,0.0144,0.0189,0.0118,0.012,0.015,0.0138,0.0287,0.0288,0.029,0.0291,0.0292,0,-0.0467,-0.0496,-0.0567,-0.0597,-0.0626,-0.068,-0.0705,-0.0716,-0.0713,-0.0641,-0.0627,-0.047,-0.0378,-0.008,0.0035,0.0239,0.0239,0.0296,0.0189,0.018,0.0179,0.0164,0.0151,0.0294,0.0294,0.0295,0.0295,0,-0.0495,-0.0519,-0.0564,-0.0617,-0.066,-0.0713,-0.0746,-0.0749,-0.0733,-0.0711,-0.0575,-0.045,-0.0241,-0.0056,0.0119,0.0241,0.0247,0.0309,0.0305,0.0205,0.019,0.0184,0.0169,0.0299,0.0299,0.0298,0.0298,0,-0.0511,-0.0547,-0.0586,-0.0632,-0.0687,-0.072,-0.0744,-0.0718,-0.0717,-0.0634,-0.0582,-0.0378,-0.0264,-0.0052,0.0099,0.0239,0.0234,0.0216,0.0217,0.0213,0.0119,0.0085,0.0201,0,0,0,0,0,-0.0518,-0.0547,-0.059,-0.0645,-0.0693,-0.0719,-0.0751,-0.0763,-0.0744,-0.0644,-0.0614,-0.042,-0.018,-0.0075,0.0072,0.0088,0.0236,0.0253,0.021,0.0325,0.0319,0.0219,0,0,0,0,0,0,-0.0523,-0.0565,-0.0586,-0.0633,-0.0667,-0.072,-0.0742,-0.0733,-0.0672,-0.0624,-0.0473,-0.0422,-0.0165,-0.0237,0.0073,0.0111,0.0087,0.037,0.0371,0.0328,0.0323,0.0319,0.0214,0,0,0,0,0]}]]